Location: Nitra
(0.0000°N, 18.0833°E)
Time: 09:50:42
(UTC+02:00)

YUBILEINY - Visible Passes

Search period start: 10 June 2023 00:00
Search period end: 20 June 2023 00:00
Orbit: 1478 x 1508 km, 82.5° (Epoch: 09 June)

Date Brightness Start Highest point End Pass type
(mag) Time Alt. Az. Time Alt. Az. Time Alt. Az.
10 Jun ? 04:47:17 11° S 04:55:46 84° E 05:04:36 10° N visible
11 Jun ? 03:59:22 14° SSE 04:06:19 39° E 04:14:18 10° NNE visible
11 Jun ? 05:55:42 10° SW 06:02:41 27° W 06:09:43 10° NNW visible
12 Jun ? 03:11:49 10° SE 03:16:50 16° E 03:21:50 10° ENE visible
12 Jun ? 05:07:19 22° SSW 05:13:14 59° W 05:21:52 10° N visible
13 Jun ? 04:19:10 32° SSE 04:23:47 68° E 04:32:31 10° NNE visible
13 Jun ? 06:16:17 10° WSW 06:20:10 14° W 06:24:05 10° WNW visible
14 Jun ? 03:30:55 24° SE 03:34:20 31° E 03:41:45 10° NE visible
14 Jun ? 05:26:54 25° SW 05:30:42 34° W 05:38:25 10° NNW visible
15 Jun ? 02:42:37 11° ESE 02:44:51 12° E 02:47:38 10° ENE visible
15 Jun ? 04:38:35 50° SSW 04:41:15 74° W 04:50:03 10° N visible
16 Jun ? 03:50:12 49° SE 03:51:49 54° E 04:00:18 10° NNE visible
16 Jun ? 05:46:10 17° WSW 05:48:11 19° W 05:53:48 10° NW visible
17 Jun ? 03:01:46 24° E 03:02:20 24° E 03:08:58 10° NE visible
17 Jun ? 04:57:43 42° WSW 04:58:43 43° W 05:06:56 10° NNW visible
18 Jun ? 04:09:14 89° SSE 04:09:17 90° E 04:18:07 10° N visible
19 Jun ? 03:20:41 42° E 03:20:41 42° E 03:27:58 10° NNE visible
19 Jun ? 05:16:39 24° W 05:16:39 24° W 05:22:54 10° NW visible
